Simultaneous Nadir Overpasses (SNOs) Predictions

Prediction of SNOs between NOAA-19 and TERRA Satellite Orbit:

Table of predicted SNOs for the next 14.0 days since TLE Epoch: 10/3/2020
Index Date (NOAA-19) Time (NOAA-19) Lat,Lon (NOAA-19) SZA (NOAA-19 ) Date (TERRA) Time (TERRA) Lat,Lon (TERRA) SZA (TERRA ) Distance(km) Time Diff (sec)
1 10/05/2020 04:43:40 79.76, 139.11 86.25 10/05/2020 04:44:09 79.75, 139.06 86.26 1.12 29
2 10/05/2020 05:34:35 -79.73, -53.27 93.73 10/05/2020 05:33:36 -79.75, -53.30 93.74 3.15 59
3 10/07/2020 10:16:52 -79.78,-124.34 92.88 10/07/2020 10:17:53 -79.77,-124.27 92.86 1.93 61
4 10/07/2020 11:07:55 79.76, 43.13 87.14 10/07/2020 11:07:20 79.73, 43.10 87.10 3.13 35
5 10/09/2020 16:41:07 -79.77, 139.83 92.00 10/09/2020 16:41:04 -79.75, 139.77 92.02 2.55 3
6 10/11/2020 22:14:25 79.78,-123.52 88.87 10/11/2020 22:14:47 79.75,-123.62 88.84 3.49 22
7 10/11/2020 23:05:22 -79.76, 43.99 91.12 10/11/2020 23:04:14 -79.76, 44.07 91.14 1.64 68
8 10/14/2020 03:47:38 -79.78, -26.80 90.29 10/14/2020 03:48:31 -79.77, -26.94 90.30 3.36 53
9 10/14/2020 04:38:39 79.75, 140.77 89.74 10/14/2020 04:37:57 79.76, 140.65 89.71 2.43 42
